GFSGL_sfc_dewp_000.txt.gz
Dewpoint
24 22 22 23 24 23 24 27 28 31 30 31 31 32 32 32 31 32 35 38 38 39 40 42 43 44 44 45 48 50 50 49 46 51 53 56 55 53 56 55 58 60 61
25 22 22 23 24 24 24 24 27 27 29 30 30 30 30 32 32 33 35 36 38 39 41 43 43 45 46 47 50 49 50 50 51 49 52 54 55 52 53 51 56 57 59
20 21 23 24 24 25 26 26 26 26 27 28 28 30 30 32 33 34 35 37 38 40 43 42 46 46 48 48 49 50 51 52 53 52 51 55 52 51 51 50 53 55 57
22 22 23 24 24 27 27 27 27 27 27 26 28 29 32 32 34 35 37 39 40 41 43 44 44 46 47 49 50 50 51 53 52 52 51 55 50 51 51 51 51 54 54
20 22 24 24 26 26 26 28 28 28 27 28 28 29 31 31 30 34 38 40 40 41 42 41 45 48 50 52 53 52 52 52 52 51 51 54 50 52 50 52 51 55 56
20 21 23 26 24 26 28 28 27 28 29 29 29 30 30 30 38 42 40 39 40 41 42 41 45 48 48 52 55 55 54 52 51 51 51 53 51 52 51 52 52 54 54
18 18 21 22 24 26 27 27 28 29 29 29 30 30 30 30 38 39 42 37 40 41 42 42 45 46 49 48 53 55 56 56 54 51 53 54 51 53 51 53 52 54 53
18 19 20 21 23 26 26 28 28 28 29 30 30 30 31 32 38 39 39 36 40 42 42 44 46 46 47 49 52 54 55 55 56 55 53 55 53 54 52 53 53 54 56
21 20 21 22 24 27 28 29 30 30 29 29 30 31 31 31 38 39 38 37 40 41 42 45 46 47 49 51 51 51 54 55 58 57 56 56 57 56 54 54 53 55 54
23 22 22 24 26 28 29 29 30 30 28 29 30 31 35 31 38 39 40 36 38 40 42 43 46 47 49 51 51 52 53 54 56 56 55 57 59 57 56 54 54 53 53
24 23 25 26 27 28 29 30 29 28 29 31 31 31 31 32 33 39 40 35 37 40 39 41 44 47 49 51 53 54 54 55 55 53 54 59 58 56 54 54 54 54 52
24 25 26 27 27 26 27 28 28 28 30 31 30 30 31 31 37 38 39 40 41 38 39 42 44 47 50 52 53 55 56 56 56 55 57 58 57 55 54 54 53 54 52
24 25 26 26 26 26 26 26 27 29 31 31 30 32 33 34 35 39 39 40 41 39 40 42 46 48 49 51 52 53 55 57 56 55 56 57 57 55 54 54 52 53 51
23 24 26 26 26 26 27 27 28 29 32 33 34 34 35 35 35 36 34 37 40 40 41 42 46 47 48 49 50 51 56 57 56 55 56 57 56 55 54 53 50 50 51
25 25 26 26 26 27 27 27 27 30 33 32 33 35 35 36 36 38 37 37 38 40 42 44 44 44 44 46 48 49 52 58 56 57 57 56 55 54 53 50 49 49 48
26 26 27 28 28 29 29 29 37 38 39 39 38 38 35 38 39 39 39 42 43 44 42 43 42 43 43 44 46 48 50 56 58 57 57 56 54 53 51 48 48 48 47
28 27 28 31 29 30 30 31 31 33 39 39 39 39 39 39 40 38 39 41 42 42 42 42 42 42 42 43 45 47 48 52 58 58 57 55 53 52 49 48 48 47 46
30 36 32 31 32 32 33 33 33 33 34 35 37 38 39 41 38 39 41 40 38 41 42 42 42 42 42 42 44 46 48 51 58 57 56 54 52 50 48 48 47 47 47
31 32 32 33 33 34 34 34 35 35 36 36 36 37 38 40 37 37 38 35 36 39 40 42 42 42 42 43 44 45 48 51 55 56 56 54 52 50 49 49 48 47 48
33 36 36 33 34 34 35 35 35 35 34 34 36 37 37 37 35 33 33 35 36 38 40 42 41 41 42 43 44 45 48 50 56 56 55 54 52 51 49 49 48 48 48
34 34 35 34 35 37 36 37 37 36 36 36 36 36 38 36 36 31 31 33 35 37 37 41 41 41 42 43 44 45 47 48 52 57 55 54 53 51 51 50 49 49 49
34 34 36 37 38 38 36 37 37 36 35 35 35 35 37 35 35 31 31 32 35 37 37 40 42 42 42 43 44 45 46 47 48 57 56 54 54 53 52 51 50 49 49
37 37 38 37 37 36 36 36 35 35 34 34 34 34 35 35 36 33 31 33 36 37 38 40 42 43 43 44 44 46 46 46 46 50 56 54 54 54 54 51 50 50 50
39 37 36 36 36 35 35 35 35 35 35 35 35 35 36 36 36 36 36 36 36 38 39 40 41 42 42 43 44 45 46 45 45 48 57 55 55 54 54 52 51 50 51
37 36 36 36 35 35 35 34 35 35 35 35 35 35 36 36 37 38 38 38 38 37 39 40 41 41 41 41 43 44 43 41 44 45 56 55 55 55 54 52 52 52 51
37 36 36 36 34 35 35 35 34 34 34 35 36 36 37 37 36 37 38 38 39 38 39 40 40 39 40 40 42 42 42 42 44 45 56 56 56 55 53 52 52 51 51

GFSGL_sfc_dewp_003.txt.gz
Dewpoint
29 27 23 23 23 23 24 26 28 29 31 33 33 33 33 33 34 33 34 36 37 38 39 42 41 41 45 44 45 46 45 45 43 45 49 50 50 52 60 61 60 61 62
28 25 23 23 24 24 24 25 26 28 30 30 31 32 31 32 33 33 34 34 35 36 39 40 40 42 44 45 45 45 46 46 47 46 49 50 52 53 58 60 60 60 61
25 23 23 23 23 23 24 26 26 27 28 29 30 30 32 32 33 34 35 35 36 38 39 39 41 42 43 44 46 47 48 50 50 49 48 50 53 54 58 58 59 59 60
24 22 22 22 23 24 25 27 27 27 28 29 29 30 33 32 33 35 36 37 38 38 40 40 41 42 42 45 47 48 50 49 50 50 49 49 52 54 57 56 57 58 58
21 22 22 24 25 25 26 27 27 28 28 29 29 30 31 32 30 34 37 39 39 40 40 40 43 43 47 49 49 50 51 50 49 49 50 51 51 51 54 55 54 55 57
21 22 24 25 24 25 25 26 27 29 28 30 29 30 31 31 38 40 40 37 39 40 39 40 41 43 45 50 50 52 52 51 50 51 51 50 51 53 53 52 53 53 53
20 21 22 24 25 25 25 26 27 28 28 29 30 30 31 31 39 40 41 36 39 39 40 41 40 41 44 44 49 51 52 55 53 52 51 51 51 52 51 50 52 52 51
19 19 20 21 22 23 25 26 28 28 29 29 30 30 31 32 40 40 40 36 38 39 40 41 42 44 42 45 48 49 49 52 54 54 53 53 52 54 53 50 52 51 53
19 19 20 21 22 25 26 27 28 29 29 29 29 29 30 31 39 40 37 35 39 39 40 42 43 42 44 49 48 48 49 51 55 57 55 55 54 56 55 52 52 51 52
22 22 22 22 24 26 27 27 28 29 29 29 28 30 35 32 37 38 36 35 36 37 41 41 42 42 47 49 48 49 50 52 55 55 56 56 56 56 58 54 53 51 50
24 24 24 25 26 27 27 28 28 28 27 27 29 31 31 32 33 38 40 36 36 38 39 39 41 44 47 49 51 51 53 55 55 55 56 55 55 55 57 55 53 52 50
25 25 24 25 26 26 26 27 27 27 26 28 31 31 32 32 37 38 40 40 39 37 38 39 41 44 47 49 49 51 53 55 57 55 55 54 54 56 56 56 54 52 52
24 24 25 26 26 25 25 25 26 26 28 31 32 33 33 33 34 39 40 38 38 37 38 40 43 45 47 47 48 50 52 54 56 54 53 54 55 57 57 56 54 53 52
23 23 25 25 26 26 26 27 26 27 29 32 32 31 32 33 35 36 37 37 38 38 40 40 43 44 45 45 45 47 49 52 55 53 53 56 58 57 57 55 54 53 52
23 24 25 26 26 26 27 27 26 27 31 31 32 32 33 34 36 39 37 38 37 37 40 41 43 42 42 43 43 45 47 50 57 56 55 56 57 57 56 54 53 53 52
24 25 26 27 28 28 29 29 35 38 39 40 40 37 36 40 41 40 41 38 41 41 40 41 41 41 41 42 42 43 45 47 52 56 56 57 57 55 54 54 53 52 51
26 27 28 31 29 29 30 30 31 33 37 38 38 39 40 40 41 43 40 41 39 40 39 40 40 42 41 42 42 43 43 46 50 56 57 57 57 56 54 52 51 50 50
29 34 32 31 31 31 32 32 33 33 33 34 37 38 39 40 41 42 41 39 35 37 38 39 40 42 41 41 42 42 44 46 50 57 56 58 57 55 52 50 50 49 48
31 31 31 32 33 34 33 33 33 34 34 35 34 36 38 40 40 40 40 35 35 36 37 39 40 42 41 41 42 43 44 46 50 54 57 57 57 54 50 49 49 47 47
32 35 36 34 33 33 34 34 35 35 36 36 35 35 37 36 36 36 35 33 34 35 37 39 40 42 41 41 42 43 44 46 50 54 57 57 56 53 49 49 48 47 47
35 33 33 33 34 35 37 38 37 35 35 36 36 37 38 36 35 36 35 33 32 34 36 38 39 42 41 42 42 43 44 46 48 49 57 56 54 52 50 49 48 48 48
33 33 34 35 38 37 36 37 37 36 36 36 34 34 36 35 36 36 36 34 33 34 36 38 40 42 42 42 43 43 44 45 46 47 54 55 53 52 50 49 48 49 48
35 37 38 37 37 36 36 36 36 36 35 35 35 34 35 35 36 37 37 37 34 36 37 38 41 42 42 43 44 44 44 45 45 46 47 54 53 51 50 49 49 49 49
38 37 35 35 35 35 36 35 35 35 35 35 35 36 35 36 37 37 38 37 38 38 38 38 41 41 41 42 42 43 45 45 44 45 48 56 53 52 50 50 50 49 49
37 35 34 35 35 33 34 35 35 35 34 35 35 36 37 37 37 37 37 38 39 40 38 39 41 40 40 40 40 42 43 41 43 43 47 54 55 53 51 50 50 49 49
36 35 35 35 35 35 35 35 35 34 33 35 35 36 36 37 37 37 38 39 39 39 38 39 39 39 39 39 40 41 41 42 43 43 47 56 56 55 52 51 50 50 49

GFSGL_sfc_dewp_006.txt.gz
Dewpoint
29 28 26 25 23 23 25 26 27 28 29 30 32 33 32 32 32 32 33 35 35 35 37 38 39 40 41 43 44 44 44 43 41 43 44 46 48 50 51 51 53 58 62
30 28 26 25 24 23 23 24 26 26 28 29 30 31 31 32 32 32 34 33 34 35 36 37 38 40 40 42 44 44 43 44 43 43 44 46 48 51 50 52 54 62 63
30 28 27 24 24 23 23 24 25 26 27 28 29 30 30 32 32 33 34 34 35 36 37 37 38 39 40 41 43 43 45 46 46 46 45 49 49 50 49 52 54 62 62
29 27 25 23 23 24 24 25 25 26 27 27 28 29 32 33 33 34 34 36 37 37 38 39 39 40 41 42 44 44 46 48 48 48 47 48 49 49 51 52 55 61 60
27 26 24 23 24 24 25 26 26 26 26 27 28 30 31 31 30 33 36 38 38 38 39 39 40 42 44 43 44 46 46 47 49 48 48 49 48 48 48 52 57 59 60
25 24 23 24 24 25 25 25 25 26 28 28 28 29 30 30 36 39 40 37 39 39 39 39 40 42 43 45 46 47 48 49 50 49 48 47 47 50 52 51 56 57 56
22 22 23 24 25 25 25 25 26 26 27 28 28 29 30 30 38 40 40 36 39 39 39 39 39 38 43 43 44 46 49 50 52 51 49 50 50 51 52 52 55 56 56
21 21 21 23 25 25 24 25 26 27 27 28 29 29 30 30 38 40 39 35 35 38 39 39 40 41 42 42 42 46 46 48 50 53 51 53 53 54 53 55 55 55 56
20 19 21 22 22 23 25 26 27 27 27 28 29 29 28 29 38 39 37 34 36 37 38 39 42 40 43 44 45 46 47 48 52 54 55 55 55 55 55 55 54 53 53
19 20 21 22 23 25 26 26 27 28 28 29 28 28 32 33 37 39 37 34 36 37 39 41 41 40 43 46 46 47 47 48 52 54 55 55 55 55 56 55 53 52 53
22 23 23 23 24 26 26 27 27 27 28 28 27 28 31 32 33 38 38 35 36 36 37 37 39 42 44 46 47 46 48 50 50 53 55 54 55 55 55 57 53 52 52
24 25 24 25 25 26 26 26 26 27 26 26 27 30 32 32 37 38 39 40 39 36 36 37 39 42 44 46 45 47 48 48 50 53 54 54 54 54 54 56 53 52 51
25 24 24 25 25 26 26 25 26 26 27 27 29 32 33 32 33 38 39 40 41 39 38 39 41 43 45 44 45 47 46 46 47 48 53 54 54 54 55 56 54 51 50
23 24 25 25 26 25 26 26 26 27 27 29 31 32 31 32 33 35 36 38 40 40 38 38 42 43 44 43 43 44 45 45 46 48 53 54 55 54 55 56 54 51 50
22 23 25 26 29 27 26 26 26 27 28 29 31 32 32 34 35 39 40 39 39 37 39 39 40 40 41 42 41 42 44 44 45 52 54 55 55 55 55 57 54 51 50
23 25 26 27 27 28 28 29 33 36 37 39 38 37 35 39 41 41 42 42 41 39 38 38 38 40 40 42 41 41 42 44 45 47 54 54 55 55 55 55 55 52 50
25 26 28 30 28 29 30 30 30 33 36 37 38 38 39 39 39 41 41 41 41 37 36 36 37 39 40 42 41 41 41 43 45 47 52 55 55 56 55 55 54 52 50
28 33 30 31 31 31 31 32 32 32 32 33 36 38 39 39 39 40 41 41 34 35 35 36 37 39 41 42 41 41 42 43 44 47 49 55 56 57 55 54 53 51 50
31 33 32 32 33 33 33 32 32 33 34 34 36 36 37 39 39 39 39 35 33 34 34 36 37 39 41 42 41 42 42 43 44 47 51 56 57 57 55 53 52 50 49
34 36 36 34 34 33 33 33 34 35 36 36 35 34 35 36 35 35 36 36 33 33 34 36 37 39 41 43 41 42 42 43 44 46 48 57 58 56 54 52 52 50 49
35 35 35 33 34 34 35 38 37 37 36 36 36 36 37 35 34 34 34 36 35 33 34 37 37 39 41 43 41 42 42 43 44 46 46 52 58 54 53 52 50 49 49
33 33 35 35 37 37 36 37 37 36 35 35 35 35 37 36 35 36 36 37 37 35 35 36 38 39 42 43 41 41 41 42 44 45 45 46 56 54 52 51 49 49 48
35 37 37 35 37 34 35 34 35 35 35 34 35 35 35 35 35 36 37 37 37 37 36 38 39 40 42 43 43 43 42 42 44 45 44 45 52 54 52 50 49 48 48
38 36 34 34 34 34 34 34 35 35 34 34 34 35 36 36 36 36 38 37 37 39 39 40 39 41 41 41 41 42 42 43 44 44 45 46 50 52 53 51 49 48 48
36 34 33 33 34 34 34 34 35 35 35 34 34 35 36 36 36 37 36 37 39 39 39 39 39 40 40 40 40 41 41 40 41 42 45 48 51 52 52 51 50 49 48
35 34 34 34 35 35 35 35 35 35 35 34 35 35 35 35 36 37 37 39 40 40 40 38 39 39 39 39 40 40 40 41 42 42 43 48 54 52 51 51 50 49 48

GFSGL_sfc_dewp_009.txt.gz
Dewpoint
27 28 28 28 27 27 27 29 30 30 30 30 30 31 32 32 31 31 31 33 34 34 35 36 37 38 39 40 41 42 42 43 41 42 42 43 43 45 45 47 51 52 53
28 28 28 27 26 24 25 25 27 27 29 29 29 30 30 31 31 31 32 32 33 34 35 36 37 37 38 40 41 41 42 43 43 41 42 42 43 45 46 47 51 53 54
28 28 28 27 25 23 23 24 25 25 26 28 29 29 29 31 31 32 33 34 34 35 36 36 37 38 38 39 40 41 43 44 45 44 43 46 46 48 48 50 51 52 52
29 28 28 26 25 24 23 24 25 25 25 27 27 28 30 31 32 33 33 34 35 36 37 38 38 39 39 40 41 42 44 45 44 44 44 46 46 48 49 48 49 52 54
29 29 28 27 25 24 25 25 25 26 26 26 26 29 30 30 30 31 34 36 37 38 39 39 40 42 44 43 41 43 44 44 44 44 46 47 47 48 47 50 50 51 56
29 29 28 27 25 24 25 25 25 26 26 27 28 28 29 29 35 37 38 36 38 38 39 39 40 40 41 44 45 45 44 45 46 46 48 48 47 46 48 49 49 49 56
28 28 27 25 24 24 25 26 25 25 26 27 27 28 28 29 37 37 38 35 36 35 36 37 37 37 41 42 44 45 44 49 50 49 49 49 47 49 50 51 51 50 57
27 26 25 24 24 24 25 25 25 26 27 27 27 28 29 30 37 38 39 35 34 36 37 38 38 39 41 41 40 42 45 46 48 50 52 51 49 52 53 52 53 52 59
25 24 23 23 23 24 24 24 26 27 27 27 27 28 28 28 36 40 38 34 35 36 37 38 39 40 42 42 41 44 45 44 48 51 52 55 54 54 54 54 53 55 55
23 23 22 22 23 24 24 25 27 27 27 28 28 28 31 31 36 39 36 34 34 36 38 39 41 37 41 43 42 46 43 44 47 48 49 55 54 54 55 54 55 55 55
23 22 22 22 23 23 25 27 27 27 27 28 27 27 27 30 33 38 38 34 35 36 37 36 37 40 42 43 44 44 45 47 46 46 50 54 54 54 55 56 56 56 54
23 23 22 22 22 25 26 27 26 27 26 26 26 27 29 31 36 37 38 38 38 37 38 38 40 41 43 43 44 46 47 46 45 45 47 52 53 53 54 55 56 55 54
22 22 22 23 25 26 26 26 26 26 26 26 27 28 30 32 32 38 39 40 41 40 40 41 41 42 43 43 44 45 45 44 44 44 45 47 54 54 54 56 55 55 51
22 23 24 24 26 26 26 26 26 26 27 27 28 30 31 32 33 34 35 37 40 40 40 38 40 41 42 42 43 44 43 43 44 44 45 47 54 54 54 55 54 52 50
22 24 25 26 27 26 27 26 26 26 28 27 30 31 32 33 35 39 39 40 40 39 38 38 38 38 38 40 42 42 42 42 43 44 45 49 54 54 54 55 54 50 49
22 24 25 27 29 28 27 28 34 35 38 39 39 37 36 39 39 39 40 41 41 42 36 35 35 36 37 39 41 41 41 42 43 43 45 49 54 53 54 55 53 50 49
24 24 29 28 27 29 30 30 29 32 36 36 37 37 38 39 39 39 40 40 41 39 34 34 35 36 37 40 41 41 40 41 43 44 45 48 54 54 54 54 52 50 49
27 33 31 30 31 31 31 31 32 32 31 32 36 38 39 37 38 39 40 39 35 34 33 34 34 36 37 39 41 41 40 41 42 43 45 49 55 54 55 54 52 50 49
33 33 32 33 33 33 33 32 32 32 32 33 35 36 36 37 38 39 38 35 34 34 33 33 34 36 37 40 42 42 41 41 42 43 45 47 52 55 55 55 53 50 49
34 35 35 34 35 34 33 33 33 34 34 36 36 35 34 34 34 34 35 34 34 34 34 33 34 36 38 41 42 41 41 41 42 43 44 45 47 56 55 54 53 50 49
37 37 36 34 34 34 35 36 37 35 35 35 36 36 37 35 34 35 34 35 36 37 35 36 36 36 38 41 42 41 41 41 41 42 43 45 45 55 56 54 52 50 49
34 34 35 35 37 37 35 35 34 33 33 34 35 35 37 36 36 35 35 36 37 38 37 36 37 37 39 40 42 41 40 41 41 42 43 44 44 49 56 54 51 50 49
35 36 37 36 36 34 35 34 34 34 34 35 33 35 35 35 34 34 35 37 37 37 37 39 39 38 39 41 42 43 41 41 42 43 43 43 44 46 56 53 51 50 49
38 36 34 34 34 34 33 31 32 34 34 34 34 34 34 35 37 35 36 36 36 37 39 39 39 38 39 40 41 42 42 42 43 42 43 43 43 46 55 52 51 50 49
35 34 33 33 33 33 34 32 33 33 34 35 34 34 34 34 35 35 36 36 38 39 39 39 39 38 39 39 40 40 41 40 40 41 42 43 45 47 54 52 51 50 48
35 34 34 34 34 34 33 32 34 34 34 34 34 33 36 36 34 35 36 36 37 38 39 40 38 38 38 39 40 39 40 40 40 40 42 44 47 50 53 52 50 49 48

GFSGL_sfc_dewp_012.txt.gz
Dewpoint
28 28 28 29 29 30 30 30 30 31 31 31 31 32 31 31 31 30 30 32 32 33 34 35 35 36 37 38 39 40 40 40 38 38 39 40 43 43 43 44 46 46 46
28 28 28 29 29 29 28 28 30 30 31 30 30 30 30 31 30 30 31 31 32 33 34 35 36 35 37 38 39 39 40 40 40 39 41 42 44 45 44 45 46 47 49
28 28 28 28 28 27 27 26 27 27 28 29 29 29 30 30 30 30 32 32 33 34 35 35 36 37 37 38 39 39 40 41 41 42 42 44 45 46 45 46 46 47 49
28 28 28 27 27 26 25 25 25 25 26 27 28 29 30 30 31 32 32 33 34 34 36 37 38 38 38 39 40 40 41 42 43 43 42 44 45 47 48 46 46 48 49
27 28 28 27 27 26 26 25 24 25 25 26 26 27 28 30 29 30 32 34 35 36 38 38 39 41 42 40 38 40 41 41 42 42 42 44 44 46 46 47 47 49 49
27 28 28 27 26 26 25 25 25 26 25 26 26 27 29 29 34 37 37 34 37 37 37 37 37 40 40 43 44 44 42 41 41 43 45 44 46 48 48 48 47 47 47
28 28 28 27 26 26 25 25 25 25 25 26 27 28 28 28 37 38 36 35 36 35 35 36 36 36 40 39 43 45 43 45 47 47 46 45 48 49 49 48 48 49 50
28 29 28 27 27 26 25 24 25 25 25 26 27 27 28 29 37 37 37 35 35 35 36 36 37 38 39 40 40 40 41 43 46 45 47 49 50 52 51 50 50 51 53
28 28 27 27 26 25 24 24 25 26 26 27 27 27 27 28 36 37 37 35 35 35 36 37 38 39 40 41 39 41 42 44 44 49 49 50 53 54 53 52 51 51 51
29 28 27 26 26 25 24 24 26 27 26 28 26 27 31 29 35 37 38 34 34 35 36 38 41 37 39 41 40 41 42 42 46 45 45 48 51 54 54 53 53 53 53
29 28 26 26 26 24 24 25 26 27 27 27 27 27 27 28 29 37 39 35 35 35 37 37 37 41 42 42 43 42 43 46 44 44 45 47 49 54 54 55 55 54 56
27 26 25 24 23 24 24 26 26 27 27 26 26 26 27 28 35 38 39 39 39 36 36 39 40 43 41 42 42 44 46 44 43 43 44 45 48 53 54 54 56 57 57
25 24 23 22 23 24 24 26 27 27 28 26 26 27 28 30 32 37 39 40 41 41 41 42 41 40 41 42 43 44 45 43 42 42 43 44 46 47 54 55 57 57 55
23 22 22 23 24 24 25 26 27 27 27 27 27 28 29 31 32 34 35 36 40 41 41 39 39 38 40 40 41 43 43 43 43 42 43 44 46 48 54 55 55 54 53
22 22 23 27 24 25 26 26 26 26 28 27 28 29 30 31 34 37 39 38 39 40 41 37 35 35 36 37 39 41 43 42 42 42 43 44 45 49 54 55 54 54 52
22 23 26 27 26 27 27 30 32 32 36 36 36 34 35 38 40 40 39 40 40 41 38 33 33 34 34 36 38 40 41 42 41 42 43 44 45 49 53 55 54 52 50
24 26 29 30 28 29 29 29 29 35 39 38 38 37 37 37 39 38 39 39 40 38 33 33 33 33 34 36 38 40 41 41 41 43 43 44 46 50 53 54 52 50 49
34 36 32 30 30 30 30 30 31 31 31 31 35 37 38 37 37 38 39 38 34 34 33 33 33 33 34 35 38 40 41 41 41 42 42 43 45 48 53 54 51 49 48
36 34 33 33 33 33 32 32 33 33 33 33 34 36 36 36 37 38 37 34 32 33 33 33 33 34 34 36 39 41 42 40 41 42 42 42 44 46 53 53 52 49 48
35 34 34 33 35 33 34 33 33 33 34 34 35 35 34 34 33 33 34 33 33 33 34 34 34 33 35 37 40 40 41 40 40 42 42 42 44 45 50 53 52 49 48
36 36 36 34 33 33 34 35 36 36 36 34 33 35 37 35 34 34 33 33 34 35 36 36 37 38 36 37 39 40 41 40 40 41 42 42 43 44 46 55 51 49 49
36 36 34 34 35 36 36 35 34 33 33 33 34 34 35 35 35 35 33 34 35 36 37 37 37 39 37 38 39 41 41 40 40 41 42 42 43 44 45 51 52 50 49
35 35 36 36 36 35 34 34 33 34 34 34 34 33 34 33 35 35 34 35 36 36 36 37 38 38 38 38 40 42 41 41 41 42 42 42 42 43 44 50 51 50 49
37 36 34 34 34 34 33 32 33 34 33 33 34 33 32 33 34 36 35 35 35 36 37 38 38 37 38 38 39 41 41 42 42 42 42 41 41 42 44 50 52 50 50
35 33 33 33 34 33 33 33 33 32 33 34 34 32 32 33 34 35 34 35 35 36 37 38 38 38 37 37 38 40 40 39 40 40 41 42 41 42 45 51 52 50 49
34 33 33 34 34 34 33 32 31 34 34 35 34 33 34 35 35 34 35 35 36 38 38 38 39 38 37 38 39 39 39 40 40 40 40 42 44 46 48 53 52 50 49